Regional Weather Roundup
Issued by NWS

Home | Current Version | Previous Version | Text Only | Print | Product List | Glossary On
Versions: 1 2 3 4 5 6 7 8 9 10 11 12 13 14 15 16 17 18 19 20 21 22 23 24 25 26 27 28 29 30 31 32 33 34 35 36 37 38 39 40 41 42 43 44 45 46 47 48 49 50
000
ASUS45 KBOU 290407
RWRCO

WEATHER ROUNDUP FOR COLORADO
NATIONAL WEATHER SERVICE DENVER/BOULDER CO
1000 PM MDT THU AUG 28 2014

NOTE: "FAIR" INDICATES FEW OR NO CLOUDS BELOW 12000 FEET WITH NO
SIGNIFICANT WEATHER AND/OR OBSTRUCTIONS TO VISIBILITY.

COZ001>005-013-030-031-290500-
...NORTHWEST COLORADO...

CITY           SKY/WX    TMP DP  RH WIND       PRES   REMARKS
CRAIG          CLEAR     56  49  77 SE3       30.22R
HAYDEN         CLEAR     55  48  76 E10       30.25S
MEEKER         CLEAR     55  50  83 NE5       30.25S
MOUNT WERNER   NOT AVBL
STEAMBOAT SPGS CLEAR     53  49  86 CALM      30.27S
WALDEN         CLEAR     46  41  81 SE7       30.33R
$$

COZ006>008-011-290500-
...WEST CENTRAL VALLEYS...

CITY           SKY/WX    TMP DP  RH WIND       PRES   REMARKS
GRAND JUNCTION CLEAR     62  56  80 SE6       30.15R
MONTROSE       CLEAR     60  50  69 SE8       30.25R
EAGLE          PTCLDY    55  48  76 E5        30.29S
RIFLE          CLEAR     59  52  77 S6        30.20R
DELTA          CLEAR     64  53  65 N8        30.20S
NUCLA          CLEAR     61  46  59 E9        30.27
$$

COZ017>023-064>068-290500-
...SOUTHWEST COLORADO...

CITY           SKY/WX    TMP DP  RH WIND       PRES   REMARKS
DURANGO        CLEAR     61  37  41 NW6       30.23R
CORTEZ         CLEAR     60  48  64 E7        30.24R
PAGOSA SPRINGS CLEAR     58  32  37 NE5       30.31R
TELLURIDE      CLEAR     50  39  66 CALM      30.43S
WOLF CREEK PAS CLEAR     37  32  81 N14       30.56F
$$

COZ009-010-012-014-032>034-037-058>063-290500-
...CENTRAL COLORADO...

CITY           SKY/WX    TMP DP  RH WIND       PRES   REMARKS
ASPEN          PTCLDY    50  43  77 S8        30.34R
BUENA VISTA    PTCLDY    54  39  57 NW12      30.33S
COPPER MTN     CLOUDY    41  36  81 W20       30.56S
BERTHOUD PASS  FOG       34  32  93 NW29      30.56S VSB 1/4 WCI  20
COTTONWOOD PAS PTCLDY    52  36  54 W9G21     30.44F
GUNNISON       CLEAR     52  39  62 CALM      30.36R
KREMMLING      PTCLDY    50  45  81 CALM      30.33R
LEADVILLE      MOCLDY    42  38  85 NE7       30.44S
MONARCH PASS   CLEAR     39  32  75 NW7       30.66R
SALIDA         PTCLDY    53  42  64 SW3       30.39R
SUNLIGHT       CLEAR     46  43  87 CALM      30.53S
WILKERSON PASS NOT AVBL
$$

COZ069>075-290500-
...SAN LUIS VALLEY/SANGRE DE CRISTO MOUNTAINS...

CITY           SKY/WX    TMP DP  RH WIND       PRES   REMARKS
ALAMOSA        CLEAR     48  43  82 S3        30.30R
LA VETA PASS   NOT AVBL
SAGUACHE       NOT AVBL
$$

COZ035-036-038>040-290500-
...NORTHERN COLORADO FRONT RANGE...

CITY           SKY/WX    TMP DP  RH WIND       PRES   REMARKS
DENVER INTL AP MOCLDY    57  50  77 S8        30.14S
DMNS CITY PARK   N/A     58  48  71 S5        30.14S
AURORA         PTCLDY    55  49  78 S8        30.16S
FRONT RANGE AP NOT AVBL
ERIE MUNI ARPT CLEAR     56  51  84 S3        30.13S
BOULDER MUN AP CLEAR     55  52  88 CALM      30.13S
CENTENNIAL     PTCLDY    55  47  74 S9        30.17S
BROOMFIELD     PTCLDY    57  50  77 SW3       30.16S
FORT COLLINS   CLEAR     57  48  72 S6        30.13S
LONGMONT       CLEAR     54  49  85 W6        30.14S
$$

COZ041-046-047-076>085-087-088-290500-
...PIKES PEAK/PALMER DIVIDE AND SOUTHERN FOOTHILLS...

CITY           SKY/WX    TMP DP  RH WIND       PRES   REMARKS
COLO. SPRINGS  PTCLDY    58  45  62 CALM      30.22S
A. F. ACADEMY  CLEAR     50  45  81 NW1       30.23R
ELLICOTT       PTCLDY    53  47  79 N7        30.19S
FALCON         PTCLDY    52  42  71 NW5       30.24F
FORT CARSON    CLEAR     55  49  81 CALM      30.19S
LIMON          MOCLDY    55  50  83 W8        30.15R
MONUMENT HILL  CLEAR     50  41  71 SW7       30.23F
TRINIDAD       CLOUDY    60  48  64 NW3       30.23R
$$

COZ042>045-048>051-090-091-290500-
...NORTHEAST COLORADO...

CITY           SKY/WX    TMP DP  RH WIND       PRES   REMARKS
GREELEY ARPT   PTCLDY    55  46  71 SW6       30.11F
AKRON          MOCLDY    60  54  80 W9        30.08S
BURLINGTON     PTCLDY    60  56  86 NW9       30.05F
WRAY             N/A     60  58  95 W7        30.01S
STERLING       CLOUDY    64  57  77 W6        30.04R
HOLYOKE        PTCLDY    61  55  82 W9        30.01S
FORT MORGAN    MOCLDY    57  52  82 W7        30.11S
$$

COZ086-089-092>099-290500-
...SOUTHEAST COLORADO...

CITY           SKY/WX    TMP DP  RH WIND       PRES   REMARKS
PUEBLO         PTCLDY    57  52  83 NW9       30.13F
LA JUNTA       MOCLDY    61  54  77 W7        30.10R
LAMAR          CLOUDY    64  56  75 W7        30.03F
SPRINGFIELD      N/A     62  52  69 NW16      30.09S
$$


USA.gov is the U.S. government's official web portal to all federal, state and local government web resources and services.